Regional Weather Roundup
Issued by NWS Nashville, TN

Home | Current Version | Previous Version | Text Only | Print | Product List | Glossary On
Versions: 1 2 3 4 5 6 7 8 9 10 11 12 13 14 15 16 17 18 19 20 21 22 23 24 25 26 27
000
ASUS44 KOHX 241310
RWROHX
MIDDLE TENNESSEE HOURLY WEATHER ROUNDUP
NATIONAL WEATHER SERVICE NASHVILLE TN
800 AM CDT SAT JUN 24 2017

NOTE: "FAIR" INDICATES FEW OR NO CLOUDS BELOW 12,000 FEET WITH
NO SIGNIFICANT WEATHER AND/OR OBSTRUCTIONS TO VISIBILITY.

* THESE REPORTS ARE NOT UNDER NWS QUALITY CONTROL AND MAY NOT
  REPORT WEATHER SUCH AS PRECIPITATION AND FOG.


TNZ005>011-023>034-057-059-062>066-078-080-241400
...NORTHERN MIDDLE TENNESSEE...

CITY           SKY/WX    TMP DP  RH WIND       PRES   REMARKS
CLARKSVILLE    CLOUDY    70  62  76 N8        30.05R
CROSSVILLE     CLOUDY    71  68  90 N8        30.05R
GALLATIN       SUNNY     73  64  73 NW6       30.05R
NASHVILLE      PTSUNNY   74  66  76 NW8       30.03R
PORTLAND       SUNNY     70  68  94 NW5       30.03R
SMYRNA         CLOUDY    73  67  81 NW8       30.04R
SPARTA         PTSUNNY   73  70  88 VRB5      30.02R
SPRINGFIELD    SUNNY     72  66  83 N7G14     30.03R
WEST NASHVILLE SUNNY     72  68  88 NW6       30.01R
$$
TNZ056-058-060-061-075>077-079-093>097-241400
...SOUTHERN MIDDLE TENNESSEE...

CITY           SKY/WX    TMP DP  RH WIND       PRES   REMARKS
COLUMBIA       MOSUNNY   73  72  94 NW6       30.02R
FAYETTEVILLE   CLOUDY    73  72  94 N7        30.03R
MURFREESBORO   CLOUDY    73  67  81 N3        30.02R
PULASKI        PTSUNNY   73  70  88 N5        30.03R
SHELBYVILLE    CLOUDY    73  68  83 N7        30.03R
TULLAHOMA        N/A     72  70  94 NW10      30.05R
WINCHESTER     CLOUDY    70  70 100 W3          N/A
$$


...KEY TO REMARKS...
VSB - VISIBILITY IN MILES
WCI - WIND CHILL INDEX
HX  - HEAT INDEX





USA.gov is the U.S. government's official web portal to all federal, state and local government web resources and services.